User: anonymous   Login
Location: Oshawa
(43.9000°N, 78.8670°W)
Time: 21:13:45
(UTC-05:00)
Language:

SPOT 5 - Orbit

View from above orbital plane
View from above orbital plane
View from above satellite
View from above satellite

Ground track
Ground track

The orbit data is extracted from the following two-line orbital elements,

1 27421U 02021A   17018.45549017  .00000020  00000-0  15851-4 0  9999
2 27421  98.4278  81.4389 0136651  67.0157 294.5386 14.51836935763948
Epoch (UTC): 18 January 2017 10:55:54
Eccentricity: 0.0136651
inclination: 98.4278°
perigee height: 622 km
apogee height: 816 km
right ascension of ascending node: 81.4389°
argument of perigee: 67.0157°
revolutions per day: 14.51836935
mean anomaly at epoch: 294.5386°
orbit number at epoch: 76394

The dashed part of the orbit path shows where the satellite is in the earth's shadow,  

DLR